| time (UTC) | temp F | wind direction | speed knots | gust knots | rain 1hr in | rain 24hr in | rain mn in | humidity % | barometer mb |
| 20260505214235 | 79 | 227 | 1.7 | 6.1 | 0.00 | 0.00 | 0.00 | 38 | 1015.3 |
| 20260505213733 | 79 | 184 | 2.6 | 7.0 | 0.00 | 0.00 | 0.00 | 37 | 1015.6 |
| 20260505213230 | 80 | 237 | 4.3 | 5.2 | 0.00 | 0.00 | 0.00 | 36 | 1015.2 |
| 20260505212726 | 79 | 252 | 3.5 | 5.2 | 0.00 | 0.00 | 0.00 | 37 | 1015.4 |
| 20260505212223 | 79 | 203 | 5.2 | 8.7 | 0.00 | 0.00 | 0.00 | 36 | 1015.6 |
| 20260505211720 | 79 | 237 | 3.5 | 8.7 | 0.00 | 0.00 | 0.00 | 36 | 1015.4 |
| 20260505211218 | 78 | 248 | 3.5 | 7.8 | 0.00 | 0.00 | 0.00 | 36 | 1015.5 |
| 20260505210714 | 79 | 175 | 1.7 | 5.2 | 0.00 | 0.00 | 0.00 | 36 | 1015.7 |
| 20260505210211 | 80 | 260 | 5.2 | 7.0 | 0.00 | 0.00 | 0.00 | 36 | 1015.6 |
| 20260505205708 | 80 | 228 | 6.1 | 9.6 | 0.00 | 0.00 | 0.00 | 35 | 1015.5 |
| 20260505205206 | 80 | 286 | 2.6 | 2.6 | 0.00 | 0.00 | 0.00 | 36 | 1015.7 |
| 20260505204702 | 80 | 258 | 4.3 | 6.1 | 0.00 | 0.00 | 0.00 | 35 | 1015.7 |
| 20260505204200 | 79 | 245 | 3.5 | 7.8 | 0.00 | 0.00 | 0.00 | 35 | 1015.6 |
| 20260505203657 | 80 | 219 | 4.3 | 7.0 | 0.00 | 0.00 | 0.00 | 35 | 1015.9 |
| 20260505203154 | 80 | 161 | 0.9 | 7.8 | 0.00 | 0.00 | 0.00 | 37 | 1015.9 |
| 20260505202649 | 79 | 172 | 0.9 | 2.6 | 0.00 | 0.00 | 0.00 | 36 | 1015.8 |
| 20260505202146 | 79 | 170 | 0.9 | 7.8 | 0.00 | 0.00 | 0.00 | 36 | 1015.9 |
| 20260505201643 | 80 | 167 | 3.5 | 7.0 | 0.00 | 0.00 | 0.00 | 35 | 1015.9 |
| 20260505201141 | 80 | 185 | 1.7 | 6.1 | 0.00 | 0.00 | 0.00 | 36 | 1016.1 |
| 20260505200638 | 79 | 217 | 0.9 | 6.1 | 0.00 | 0.00 | 0.00 | 37 | 1016.1 |
| 20260505200135 | 78 | 266 | 5.2 | 7.8 | 0.00 | 0.00 | 0.00 | 37 | 1016.1 |
| 20260505195631 | 78 | 229 | 3.5 | 9.6 | 0.00 | 0.00 | 0.00 | 37 | 1016.3 |
| 20260505195129 | 78 | 173 | 2.6 | 6.1 | 0.00 | 0.00 | 0.00 | 37 | 1016.3 |
| 20260505194625 | 79 | 179 | 5.2 | 7.0 | 0.00 | 0.00 | 0.00 | 37 | 1016.5 |
| 20260505194121 | 79 | 138 | 0.9 | 7.0 | 0.00 | 0.00 | 0.00 | 36 | 1016.7 |
| 20260505193619 | 79 | 285 | 3.5 | 7.0 | 0.00 | 0.00 | 0.00 | 35 | 1016.6 |
| 20260505193116 | 80 | 204 | 1.7 | 3.5 | 0.00 | 0.00 | 0.00 | 36 | 1016.8 |
| 20260505192614 | 79 | 202 | 0.9 | 3.5 | 0.00 | 0.00 | 0.00 | 38 | 1017.0 |
| 20260505192111 | 78 | 278 | 3.5 | 6.1 | 0.00 | 0.00 | 0.00 | 37 | 1016.9 |
| 20260505191609 | 79 | 225 | 2.6 | 8.7 | 0.00 | 0.00 | 0.00 | 36 | 1017.2 |
| 20260505191107 | 79 | 212 | 3.5 | 8.7 | 0.00 | 0.00 | 0.00 | 37 | 1017.1 |
| 20260505190602 | 78 | 140 | 2.6 | 8.7 | 0.00 | 0.00 | 0.00 | 37 | 1017.1 |
| 20260505190058 | 78 | 305 | 6.1 | 8.7 | 0.00 | 0.00 | 0.00 | 38 | 1017.4 |
| 20260505185555 | 77 | 162 | 0.9 | 6.1 | 0.00 | 0.00 | 0.00 | 39 | 1017.2 |
| 20260505185051 | 78 | 225 | 2.6 | 5.2 | 0.00 | 0.00 | 0.00 | 38 | 1017.4 |
| 20260505184548 | 78 | 165 | 0.9 | 5.2 | 0.00 | 0.00 | 0.00 | 38 | 1017.3 |
| 20260505184045 | 78 | 226 | 2.6 | 5.2 | 0.00 | 0.00 | 0.00 | 38 | 1017.5 |
| 20260505183541 | 78 | 253 | 3.5 | 7.8 | 0.00 | 0.00 | 0.00 | 38 | 1017.5 |
| 20260505183039 | 77 | 300 | 5.2 | 7.8 | 0.00 | 0.00 | 0.00 | 38 | 1017.5 |
| 20260505182535 | 77 | 183 | 1.7 | 6.1 | 0.00 | 0.00 | 0.00 | 40 | 1017.4 |
| 20260505182032 | 78 | 123 | 3.5 | 9.6 | 0.00 | 0.00 | 0.00 | 38 | 1017.5 |
| 20260505181528 | 78 | 227 | 3.5 | 3.5 | 0.00 | 0.00 | 0.00 | 38 | 1017.5 |
| 20260505181026 | 77 | 247 | 3.5 | 3.5 | 0.00 | 0.00 | 0.00 | 38 | 1017.6 |
| 20260505180521 | 77 | 183 | 0.9 | 7.8 | 0.00 | 0.00 | 0.00 | 39 | 1018.0 |
| 20260505180021 | 76 | 269 | 1.7 | 7.8 | 0.00 | 0.00 | 0.00 | 39 | 1018.0 |
| 20260505175515 | 77 | 254 | 9.6 | 11.3 | 0.00 | 0.00 | 0.00 | 37 | 1018.1 |
| 20260505175012 | 77 | 268 | 3.5 | 7.0 | 0.00 | 0.00 | 0.00 | 37 | 1018.3 |
| 20260505174509 | 76 | 257 | 4.3 | 8.7 | 0.00 | 0.00 | 0.00 | 38 | 1018.2 |
| 20260505174005 | 77 | 262 | 9.6 | 11.3 | 0.00 | 0.00 | 0.00 | 37 | 1018.4 |
| 20260505173502 | 76 | 225 | 2.6 | 7.0 | 0.00 | 0.00 | 0.00 | 37 | 1018.4 |
| 20260505172958 | 76 | 255 | 3.5 | 7.8 | 0.00 | 0.00 | 0.00 | 37 | 1018.6 |
| 20260505172457 | 76 | 241 | 3.5 | 7.8 | 0.00 | 0.00 | 0.00 | 39 | 1018.7 |
| 20260505171956 | 77 | 246 | 3.5 | 7.8 | 0.00 | 0.00 | 0.00 | 39 | 1018.7 |
| 20260505171453 | 75 | 255 | 5.2 | 7.0 | 0.00 | 0.00 | 0.00 | 43 | 1018.6 |
| 20260505170950 | 76 | 235 | 3.5 | 6.1 | 0.00 | 0.00 | 0.00 | 40 | 1018.6 |
| 20260505170446 | 75 | 236 | 2.6 | 7.0 | 0.00 | 0.00 | 0.00 | 41 | 1018.3 |
| 20260505165942 | 75 | 244 | 3.5 | 6.1 | 0.00 | 0.00 | 0.00 | 42 | 1018.5 |
| 20260505165438 | 75 | 230 | 0.9 | 1.7 | 0.00 | 0.00 | 0.00 | 42 | 1018.4 |
| 20260505164933 | 75 | 222 | 2.6 | 5.2 | 0.00 | 0.00 | 0.00 | 43 | 1018.4 |
| 20260505164430 | 75 | 259 | 2.6 | 3.5 | 0.00 | 0.00 | 0.00 | 42 | 1018.3 |
| 20260505163928 | 75 | 225 | 0.9 | 7.0 | 0.00 | 0.00 | 0.00 | 43 | 1018.4 |
| 20260505163427 | 75 | 180 | 0.9 | 5.2 | 0.00 | 0.00 | 0.00 | 44 | 1018.3 |
| 20260505162926 | 74 | 254 | 1.7 | 2.6 | 0.00 | 0.00 | 0.00 | 44 | 1018.6 |
| 20260505162421 | 74 | 208 | 1.7 | 6.1 | 0.00 | 0.00 | 0.00 | 47 | 1018.9 |
| 20260505161918 | 73 | 250 | 3.5 | 3.5 | 0.00 | 0.00 | 0.00 | 48 | 1018.8 |
| 20260505161415 | 73 | 250 | 3.5 | 5.2 | 0.00 | 0.00 | 0.00 | 49 | 1018.9 |
| 20260505160912 | 73 | 249 | 3.5 | 7.8 | 0.00 | 0.00 | 0.00 | 47 | 1018.8 |
| 20260505160410 | 73 | 253 | 5.2 | 7.0 | 0.00 | 0.00 | 0.00 | 48 | 1019.0 |
| 20260505153349 | 71 | 234 | 3.5 | 5.2 | 0.00 | 0.00 | 0.00 | 53 | 1019.2 |
| 20260505152846 | 71 | 244 | 2.6 | 3.5 | 0.00 | 0.00 | 0.00 | 52 | 1019.2 |
| 20260505152344 | 72 | 215 | 0.9 | 0.9 | 0.00 | 0.00 | 0.00 | 52 | 1019.1 |
| 20260505151843 | 73 | 239 | 4.3 | 5.2 | 0.00 | 0.00 | 0.00 | 50 | 1019.0 |
| 20260505151340 | 71 | 160 | 0.0 | 1.7 | 0.00 | 0.00 | 0.00 | 54 | 1019.2 |
| 20260505150837 | 70 | 188 | 0.9 | 2.6 | 0.00 | 0.00 | 0.00 | 56 | 1019.2 |
| 20260505150335 | 69 | 258 | 1.7 | 3.5 | 0.00 | 0.00 | 0.00 | 58 | 1019.3 |
| 20260505140258 | 65 | 251 | 0.0 | 2.6 | 0.00 | 0.00 | 0.00 | 65 | 1019.1 |
| 20260505130222 | 60 | 168 | 0.9 | 3.5 | 0.00 | 0.00 | 0.00 | 76 | 1018.6 |
| 20260505124712 | 59 | 166 | 0.9 | 1.7 | 0.00 | 0.00 | 0.00 | 76 | 1018.5 |
| 20260505124209 | 59 | 166 | 1.7 | 1.7 | 0.00 | 0.00 | 0.00 | 75 | 1018.7 |
| 20260505123705 | 59 | 187 | 1.7 | 2.6 | 0.00 | 0.00 | 0.00 | 75 | 1018.7 |
| 20260505123202 | 59 | 181 | 0.9 | 2.6 | 0.00 | 0.00 | 0.00 | 74 | 1018.7 |
| 20260505122658 | 60 | 179 | 0.9 | 1.7 | 0.00 | 0.00 | 0.00 | 72 | 1018.6 |
| 20260505122155 | 61 | 178 | 0.9 | 1.7 | 0.00 | 0.00 | 0.00 | 71 | 1018.6 |
| 20260505121652 | 61 | 162 | 0.0 | 0.0 | 0.00 | 0.00 | 0.00 | 70 | 1018.5 |
| 20260505121149 | 61 | 163 | 0.0 | 0.0 | 0.00 | 0.00 | 0.00 | 70 | 1018.5 |
| 20260505120645 | 61 | 162 | 0.0 | 0.0 | 0.00 | 0.00 | 0.00 | 71 | 1018.6 |
| 20260505120142 | 60 | 163 | 0.0 | 0.0 | 0.00 | 0.00 | 0.00 | 72 | 1018.5 |
| 20260505115641 | 58 | 162 | 0.0 | 0.0 | 0.00 | 0.00 | 0.00 | 76 | 1018.4 |
| 20260505115139 | 56 | 162 | 0.0 | 0.0 | 0.00 | 0.00 | 0.00 | 82 | 1018.5 |
| 20260505114636 | 53 | 162 | 0.0 | 0.0 | 0.00 | 0.00 | 0.00 | 88 | 1018.5 |
| 20260505114132 | 52 | 161 | 0.0 | 0.0 | 0.00 | 0.00 | 0.00 | 89 | 1018.4 |
| 20260505113629 | 51 | 160 | 0.0 | 0.0 | 0.00 | 0.00 | 0.00 | 89 | 1018.4 |
| 20260505113125 | 51 | 160 | 0.0 | 0.0 | 0.00 | 0.00 | 0.00 | 90 | 1018.1 |
| 20260505112621 | 51 | 160 | 0.0 | 0.0 | 0.00 | 0.00 | 0.00 | 90 | 1018.0 |
| 20260505112121 | 50 | 160 | 0.0 | 0.0 | 0.00 | 0.00 | 0.00 | 90 | 1018.1 |
| 20260505111619 | 50 | 160 | 0.0 | 0.0 | 0.00 | 0.00 | 0.00 | 90 | 1018.2 |
| 20260505111116 | 50 | 160 | 0.0 | 0.0 | 0.00 | 0.00 | 0.00 | 89 | 1017.9 |
| 20260505110612 | 49 | 160 | 0.0 | 0.0 | 0.00 | 0.00 | 0.00 | 89 | 1018.1 |
| 20260505110109 | 49 | 160 | 0.0 | 0.0 | 0.00 | 0.00 | 0.00 | 89 | 1018.1 |
| 20260505102045 | 50 | 160 | 0.0 | 0.0 | 0.00 | 0.00 | 0.00 | 85 | 1018.0 |
| 20260505101543 | 50 | 159 | 0.0 | 0.9 | 0.00 | 0.00 | 0.00 | 85 | 1017.8 |
| 20260505101039 | 50 | 170 | 0.0 | 0.0 | 0.00 | 0.00 | 0.00 | 85 | 1017.8 |
| 20260505100536 | 51 | 172 | 0.0 | 0.0 | 0.00 | 0.00 | 0.00 | 85 | 1017.9 |
| 20260505100033 | 51 | 172 | 0.0 | 0.0 | 0.00 | 0.00 | 0.00 | 84 | 1017.7 |
| 20260505095529 | 51 | 172 | 0.0 | 0.0 | 0.00 | 0.00 | 0.00 | 83 | 1017.8 |
| 20260505095025 | 51 | 172 | 0.0 | 0.0 | 0.00 | 0.00 | 0.00 | 82 | 1017.7 |
| 20260505094522 | 51 | 173 | 0.0 | 0.0 | 0.00 | 0.00 | 0.00 | 82 | 1017.6 |
| 20260505094018 | 51 | 173 | 0.0 | 0.0 | 0.00 | 0.00 | 0.00 | 81 | 1017.9 |
| 20260505093515 | 51 | 173 | 0.0 | 0.0 | 0.00 | 0.00 | 0.00 | 81 | 1017.8 |
| 20260505093012 | 52 | 173 | 0.0 | 0.0 | 0.00 | 0.00 | 0.00 | 81 | 1017.9 |
| 20260505092510 | 52 | 173 | 0.0 | 0.0 | 0.00 | 0.00 | 0.00 | 80 | 1017.5 |
| 20260505092008 | 52 | 173 | 0.0 | 0.0 | 0.00 | 0.00 | 0.00 | 79 | 1017.7 |
| 20260505091504 | 53 | 173 | 0.0 | 0.0 | 0.00 | 0.00 | 0.00 | 78 | 1017.6 |
| 20260505091003 | 52 | 174 | 0.0 | 0.9 | 0.00 | 0.00 | 0.00 | 78 | 1017.6 |
| 20260505090500 | 51 | 174 | 0.0 | 0.9 | 0.00 | 0.00 | 0.00 | 80 | 1017.6 |
| 20260505085957 | 51 | 169 | 0.0 | 0.0 | 0.00 | 0.00 | 0.00 | 80 | 1017.7 |
| 20260505085455 | 51 | 165 | 0.0 | 0.0 | 0.00 | 0.00 | 0.00 | 80 | 1017.5 |
| 20260505084954 | 51 | 165 | 0.0 | 0.0 | 0.00 | 0.00 | 0.00 | 79 | 1017.6 |
| 20260505084451 | 52 | 165 | 0.0 | 0.0 | 0.00 | 0.00 | 0.00 | 79 | 1017.7 |
| 20260505083949 | 52 | 165 | 0.0 | 0.0 | 0.00 | 0.00 | 0.00 | 79 | 1017.5 |
| 20260505083446 | 52 | 165 | 0.0 | 0.0 | 0.00 | 0.00 | 0.00 | 79 | 1017.3 |
| 20260505082942 | 53 | 165 | 0.0 | 0.0 | 0.00 | 0.00 | 0.00 | 77 | 1017.3 |
| 20260505082438 | 53 | 165 | 0.0 | 0.0 | 0.00 | 0.00 | 0.00 | 77 | 1017.5 |
| 20260505081936 | 54 | 165 | 0.0 | 0.9 | 0.00 | 0.00 | 0.00 | 75 | 1017.3 |
| 20260505081432 | 54 | 165 | 0.0 | 0.9 | 0.00 | 0.00 | 0.00 | 73 | 1017.3 |
| 20260505080929 | 54 | 165 | 0.0 | 0.9 | 0.00 | 0.00 | 0.00 | 73 | 1017.4 |
| 20260505080425 | 55 | 166 | 0.9 | 1.7 | 0.00 | 0.00 | 0.00 | 70 | 1017.3 |
| 20260505075920 | 55 | 165 | 1.7 | 1.7 | 0.00 | 0.00 | 0.00 | 70 | 1017.4 |
| 20260505075417 | 55 | 163 | 0.0 | 1.7 | 0.00 | 0.00 | 0.00 | 70 | 1017.2 |
| 20260505074915 | 56 | 167 | 0.0 | 0.0 | 0.00 | 0.00 | 0.00 | 69 | 1017.3 |
| 20260505074412 | 56 | 167 | 0.0 | 0.9 | 0.00 | 0.00 | 0.00 | 68 | 1017.2 |
| 20260505073909 | 56 | 164 | 0.9 | 1.7 | 0.00 | 0.00 | 0.00 | 68 | 1017.3 |
| 20260505073407 | 55 | 168 | 0.0 | 1.7 | 0.00 | 0.00 | 0.00 | 69 | 1017.1 |
| 20260505072904 | 54 | 174 | 1.7 | 2.6 | 0.00 | 0.00 | 0.00 | 72 | 1017.0 |
| 20260505072359 | 53 | 172 | 0.0 | 0.9 | 0.00 | 0.00 | 0.00 | 76 | 1017.2 |
| 20260505071856 | 53 | 172 | 0.0 | 0.0 | 0.00 | 0.00 | 0.00 | 76 | 1017.4 |
| 20260505071352 | 53 | 172 | 0.0 | 0.0 | 0.00 | 0.00 | 0.00 | 76 | 1017.3 |
| 20260505070851 | 54 | 172 | 0.0 | 0.0 | 0.00 | 0.00 | 0.00 | 76 | 1017.5 |
| 20260505070347 | 54 | 172 | 0.0 | 0.0 | 0.00 | 0.00 | 0.00 | 74 | 1017.3 |
| 20260505065842 | 54 | 172 | 0.0 | 0.0 | 0.00 | 0.00 | 0.00 | 74 | 1017.4 |
| 20260505065339 | 54 | 172 | 0.0 | 0.0 | 0.00 | 0.00 | 0.00 | 76 | 1017.3 |
| 20260505064836 | 54 | 174 | 0.0 | 0.0 | 0.00 | 0.00 | 0.00 | 74 | 1017.0 |
| 20260505064333 | 55 | 167 | 0.9 | 0.9 | 0.00 | 0.00 | 0.00 | 75 | 1017.2 |
| 20260505063831 | 56 | 178 | 0.9 | 0.9 | 0.00 | 0.00 | 0.00 | 68 | 1017.2 |
| 20260505063327 | 57 | 178 | 0.0 | 0.0 | 0.00 | 0.00 | 0.00 | 66 | 1017.1 |
| 20260505062824 | 57 | 178 | 0.0 | 0.0 | 0.00 | 0.00 | 0.00 | 65 | 1017.1 |
| 20260505062321 | 58 | 178 | 0.0 | 0.0 | 0.00 | 0.00 | 0.00 | 64 | 1017.3 |
| 20260505061818 | 58 | 177 | 0.0 | 0.0 | 0.00 | 0.00 | 0.00 | 63 | 1017.2 |
| 20260505061316 | 57 | 180 | 0.9 | 0.9 | 0.00 | 0.00 | 0.00 | 63 | 1017.1 |
| 20260505060813 | 56 | 175 | 0.0 | 0.9 | 0.00 | 0.00 | 0.00 | 67 | 1017.2 |
| 20260505060310 | 55 | 167 | 0.0 | 0.0 | 0.00 | 0.00 | 0.00 | 69 | 1017.4 |
| 20260505055806 | 55 | 167 | 0.0 | 0.0 | 0.00 | 0.00 | 0.00 | 71 | 1017.2 |
| 20260505055303 | 55 | 167 | 0.0 | 0.0 | 0.00 | 0.00 | 0.00 | 69 | 1017.0 |
| 20260505054759 | 55 | 167 | 0.0 | 0.0 | 0.00 | 0.00 | 0.00 | 70 | 1017.4 |
| 20260505054257 | 55 | 167 | 0.0 | 0.0 | 0.00 | 0.00 | 0.00 | 71 | 1017.3 |
| 20260505053755 | 56 | 167 | 0.0 | 0.0 | 0.00 | 0.00 | 0.00 | 71 | 1017.2 |
| 20260505053251 | 56 | 167 | 0.0 | 0.0 | 0.00 | 0.00 | 0.00 | 69 | 1017.3 |
| 20260505052748 | 56 | 167 | 0.0 | 0.0 | 0.00 | 0.00 | 0.00 | 68 | 1017.2 |
| 20260505052245 | 56 | 167 | 0.0 | 0.0 | 0.00 | 0.00 | 0.00 | 70 | 1017.3 |
| 20260505051742 | 56 | 167 | 0.0 | 0.0 | 0.00 | 0.00 | 0.00 | 69 | 1017.3 |
| 20260505051240 | 56 | 169 | 0.0 | 0.0 | 0.00 | 0.00 | 0.00 | 71 | 1017.4 |
| 20260505050738 | 56 | 169 | 0.0 | 0.0 | 0.00 | 0.00 | 0.00 | 71 | 1017.5 |
| 20260505050236 | 56 | 169 | 0.0 | 0.0 | 0.00 | 0.00 | 0.00 | 71 | 1017.5 |
| 20260505041706 | 57 | 169 | 0.0 | 0.0 | 0.00 | 0.00 | 0.00 | 72 | 1017.5 |
| 20260505041203 | 57 | 169 | 0.0 | 0.0 | 0.00 | 0.00 | 0.00 | 71 | 1017.4 |
| 20260505040700 | 57 | 169 | 0.0 | 0.0 | 0.00 | 0.00 | 0.00 | 72 | 1017.6 |
| 20260505040157 | 57 | 168 | 0.0 | 0.0 | 0.00 | 0.00 | 0.00 | 72 | 1017.5 |
| 20260505035654 | 57 | 168 | 0.0 | 0.0 | 0.00 | 0.00 | 0.00 | 71 | 1017.7 |
| 20260505035150 | 58 | 168 | 0.0 | 0.0 | 0.00 | 0.00 | 0.00 | 70 | 1017.7 |
| 20260505034647 | 58 | 168 | 0.0 | 0.0 | 0.00 | 0.00 | 0.00 | 70 | 1017.6 |
| 20260505034144 | 58 | 168 | 0.0 | 0.0 | 0.00 | 0.00 | 0.00 | 68 | 1017.7 |
| 20260505033640 | 59 | 168 | 0.0 | 0.0 | 0.00 | 0.00 | 0.00 | 69 | 1017.7 |
| 20260505033139 | 59 | 168 | 0.0 | 0.0 | 0.00 | 0.00 | 0.00 | 68 | 1017.7 |
| 20260505032637 | 59 | 168 | 0.0 | 0.0 | 0.00 | 0.00 | 0.00 | 67 | 1017.7 |
| 20260505032132 | 59 | 168 | 0.0 | 0.0 | 0.00 | 0.00 | 0.00 | 65 | 1017.5 |
| 20260505031630 | 60 | 168 | 0.0 | 0.0 | 0.00 | 0.00 | 0.00 | 64 | 1017.5 |
| 20260505031125 | 60 | 168 | 0.0 | 0.0 | 0.00 | 0.00 | 0.00 | 63 | 1017.7 |
| 20260505030623 | 61 | 168 | 0.0 | 0.0 | 0.00 | 0.00 | 0.00 | 61 | 1017.6 |
| 20260505030119 | 61 | 168 | 0.0 | 0.0 | 0.00 | 0.00 | 0.00 | 60 | 1017.8 |
| 20260505025614 | 62 | 168 | 0.0 | 0.0 | 0.00 | 0.00 | 0.00 | 60 | 1017.7 |
| 20260505025114 | 62 | 168 | 0.0 | 0.0 | 0.00 | 0.00 | 0.00 | 59 | 1017.7 |
| 20260505024610 | 63 | 168 | 0.0 | 0.0 | 0.00 | 0.00 | 0.00 | 57 | 1017.7 |
| 20260505024108 | 63 | 168 | 0.0 | 0.0 | 0.00 | 0.00 | 0.00 | 56 | 1017.6 |
| 20260505023605 | 64 | 169 | 0.0 | 0.9 | 0.00 | 0.00 | 0.00 | 56 | 1017.6 |
| 20260505023102 | 64 | 166 | 0.0 | 0.9 | 0.00 | 0.00 | 0.00 | 55 | 1017.4 |
| 20260505022600 | 64 | 166 | 0.9 | 0.9 | 0.00 | 0.00 | 0.00 | 55 | 1017.5 |
| 20260505022056 | 64 | 166 | 0.0 | 0.9 | 0.00 | 0.00 | 0.00 | 55 | 1017.4 |
| 20260505021553 | 64 | 166 | 0.0 | 0.9 | 0.00 | 0.00 | 0.00 | 53 | 1017.5 |
| 20260505021050 | 64 | 166 | 0.0 | 1.7 | 0.00 | 0.00 | 0.00 | 53 | 1017.2 |
| 20260505020550 | 64 | 167 | 0.9 | 0.9 | 0.00 | 0.00 | 0.00 | 55 | 1017.3 |
| 20260505020047 | 63 | 165 | 0.0 | 0.9 | 0.00 | 0.00 | 0.00 | 57 | 1017.5 |
| 20260505015544 | 62 | 166 | 0.0 | 0.0 | 0.00 | 0.00 | 0.00 | 62 | 1017.4 |
| 20260505015041 | 62 | 166 | 0.0 | 0.0 | 0.00 | 0.00 | 0.00 | 59 | 1017.2 |
| 20260505014537 | 63 | 166 | 0.0 | 0.0 | 0.00 | 0.00 | 0.00 | 60 | 1017.1 |
| 20260505014035 | 63 | 166 | 0.0 | 0.0 | 0.00 | 0.00 | 0.00 | 58 | 1017.1 |
| 20260505013532 | 63 | 166 | 0.0 | 0.0 | 0.00 | 0.00 | 0.00 | 57 | 1017.0 |
| 20260505013029 | 64 | 166 | 0.0 | 0.0 | 0.00 | 0.00 | 0.00 | 59 | 1017.2 |
| 20260505012527 | 64 | 166 | 0.0 | 0.0 | 0.00 | 0.00 | 0.00 | 57 | 1017.0 |
| 20260505012024 | 64 | 166 | 0.0 | 0.0 | 0.00 | 0.00 | 0.00 | 60 | 1017.1 |
| 20260505011519 | 64 | 166 | 0.0 | 0.0 | 0.00 | 0.00 | 0.00 | 58 | 1017.0 |
| 20260505011017 | 64 | 166 | 0.0 | 0.0 | 0.00 | 0.00 | 0.00 | 58 | 1016.9 |
| 20260505010512 | 65 | 166 | 0.0 | 0.0 | 0.00 | 0.00 | 0.00 | 56 | 1016.8 |
| 20260505010009 | 65 | 166 | 0.0 | 0.0 | 0.00 | 0.00 | 0.00 | 53 | 1016.8 |
| 20260505005505 | 66 | 166 | 0.0 | 0.0 | 0.00 | 0.00 | 0.00 | 54 | 1016.9 |
| 20260505005004 | 67 | 166 | 0.0 | 0.0 | 0.00 | 0.00 | 0.00 | 53 | 1016.9 |
| 20260505004500 | 67 | 166 | 0.0 | 0.0 | 0.00 | 0.00 | 0.00 | 52 | 1016.7 |
| 20260505003956 | 68 | 166 | 0.0 | 0.0 | 0.00 | 0.00 | 0.00 | 52 | 1016.6 |
| 20260505003454 | 68 | 166 | 0.0 | 0.0 | 0.00 | 0.00 | 0.00 | 50 | 1016.6 |
| 20260505002950 | 69 | 166 | 0.0 | 0.0 | 0.00 | 0.00 | 0.00 | 47 | 1016.6 |
| 20260505002446 | 70 | 166 | 0.0 | 0.0 | 0.00 | 0.00 | 0.00 | 46 | 1016.4 |
| 20260505001945 | 70 | 167 | 0.0 | 0.0 | 0.00 | 0.00 | 0.00 | 46 | 1016.6 |
| 20260505001442 | 70 | 167 | 0.0 | 0.0 | 0.00 | 0.00 | 0.00 | 44 | 1016.7 |
| 20260505000938 | 71 | 167 | 0.0 | 0.0 | 0.00 | 0.00 | 0.00 | 46 | 1016.6 |
| 20260505000437 | 71 | 167 | 0.0 | 0.0 | 0.00 | 0.00 | 0.00 | 45 | 1016.6 |
| 20260504235933 | 71 | 167 | 0.0 | 0.0 | 0.00 | 0.00 | 0.00 | 43 | 1016.5 |
| 20260504235431 | 72 | 166 | 0.0 | 0.0 | 0.00 | 0.00 | 0.00 | 41 | 1016.4 |
| 20260504234926 | 72 | 167 | 0.0 | 1.7 | 0.00 | 0.00 | 0.00 | 41 | 1016.3 |
| 20260504234424 | 72 | 168 | 0.0 | 0.0 | 0.00 | 0.00 | 0.00 | 42 | 1016.3 |
| 20260504233920 | 73 | 166 | 0.0 | 0.9 | 0.00 | 0.00 | 0.00 | 40 | 1016.4 |
| 20260504233416 | 73 | 166 | 0.0 | 0.9 | 0.00 | 0.00 | 0.00 | 40 | 1016.1 |
| 20260504232914 | 73 | 166 | 0.0 | 0.0 | 0.00 | 0.00 | 0.00 | 40 | 1016.1 |
| 20260504232411 | 74 | 166 | 0.0 | 0.0 | 0.00 | 0.00 | 0.00 | 38 | 1016.3 |
| 20260504231908 | 74 | 166 | 0.0 | 0.9 | 0.00 | 0.00 | 0.00 | 38 | 1016.1 |
| 20260504231403 | 74 | 191 | 0.0 | 0.9 | 0.00 | 0.00 | 0.00 | 37 | 1016.0 |
| 20260504230900 | 75 | 206 | 0.0 | 0.9 | 0.00 | 0.00 | 0.00 | 36 | 1016.1 |
| 20260504230357 | 75 | 191 | 0.0 | 0.9 | 0.00 | 0.00 | 0.00 | 36 | 1016.4 |
| 20260504225856 | 75 | 192 | 0.0 | 0.9 | 0.00 | 0.00 | 0.00 | 35 | 1016.0 |
| 20260504225352 | 75 | 187 | 0.0 | 1.7 | 0.00 | 0.00 | 0.00 | 34 | 1016.0 |
| 20260504224850 | 75 | 188 | 0.0 | 0.0 | 0.00 | 0.00 | 0.00 | 34 | 1016.1 |
| 20260504224346 | 75 | 159 | 0.9 | 1.7 | 0.00 | 0.00 | 0.00 | 33 | 1016.3 |
| 20260504223843 | 76 | 257 | 2.6 | 3.5 | 0.00 | 0.00 | 0.00 | 32 | 1016.1 |
| 20260504223338 | 76 | 181 | 0.0 | 0.9 | 0.00 | 0.00 | 0.00 | 35 | 1016.1 |
| 20260504222835 | 76 | 179 | 0.0 | 2.6 | 0.00 | 0.00 | 0.00 | 34 | 1016.3 |
| 20260504222332 | 76 | 173 | 1.7 | 1.7 | 0.00 | 0.00 | 0.00 | 34 | 1016.1 |
| 20260504221831 | 76 | 240 | 1.7 | 1.7 | 0.00 | 0.00 | 0.00 | 34 | 1016.4 |
| 20260504221327 | 76 | 143 | 0.9 | 3.5 | 0.00 | 0.00 | 0.00 | 33 | 1016.4 |
| 20260504220824 | 76 | 227 | 2.6 | 5.2 | 0.00 | 0.00 | 0.00 | 35 | 1016.5 |
| 20260504220321 | 76 | 176 | 0.9 | 6.1 | 0.00 | 0.00 | 0.00 | 35 | 1016.1 |
| 20260504215819 | 76 | 244 | 3.5 | 6.1 | 0.00 | 0.00 | 0.00 | 32 | 1016.0 |
| 20260504215314 | 76 | 260 | 2.6 | 6.1 | 0.00 | 0.00 | 0.00 | 33 | 1016.0 |
| 20260504214811 | 77 | 253 | 0.9 | 3.5 | 0.00 | 0.00 | 0.00 | 32 | 1016.1 |
| 20260504214308 | 77 | 169 | 1.7 | 5.2 | 0.00 | 0.00 | 0.00 | 33 | 1016.4 |